Weather History for Dublin, Ireland

Change the Weather History Date:

Tuesday, October 29, 2013

  Actual Average Record
Temperature  
Mean Temperature 46 °F -  
Max Temperature 50 °F 50 °F 60 °F (2010)
Min Temperature 41 °F 40 °F 30 °F (2008)
Degree Days  
Heating Degree Days 20    
Moisture  
Dew Point 40 °F    
Average Humidity 83    
Maximum Humidity 93    
Minimum Humidity 62    
Precipitation  
Precipitation 0.01 in 0.08 in - ()
Sea Level Pressure  
Sea Level Pressure 29.82 in    
Wind  
Wind Speed 16 mph ()    
Max Wind Speed 23 mph    
Max Gust Speed -    
Visibility 6.7 miles    
Events Rain    
Averages and records for this station are not official NWS values.
T = Trace of Precipitation, MM = Missing Value Source: Averaged Metar Reports

Daily Weather History Graph

Daily Weather History Graph

Search for Another Location

Airport:

Trip Planner

Search our weather history database for the weather conditions in past years. The results will help you decide how hot, cold, wet, or windy it might be!

Date:

Astronomy

Oct. 29, 2013 Rise Set
Actual Time 7:18 AM GMT 4:58 PM GMT
Civil Twilight 6:41 AM GMT 5:34 PM GMT
Nautical Twilight 6:00 AM GMT 6:15 PM GMT
Astronomical Twilight 5:20 AM GMT 6:56 PM GMT
Moon 1:11 AM GMT (10/29) 2:43 PM GMT (10/29)
Length of Visible Light 10h 53m
Length of Day
9h 39m
Waning Crescent, 27% of the Moon is Illuminated
Oct 29
Waning Crescent
Nov 3
New
Nov 10
First Quarter
Nov 17
Full
Nov 25
Last Quarter

Hourly Weather History & Observations

Time (GMT) Temp. Windchill Dew Point Humidity Pressure Visibility Wind Dir Wind Speed Gust Speed Precip Events Conditions
12:00 AM 45 °F - 42 °F 86% 29.58 in 19 mi West 17.9 mph - - Rain Light Rain Showers
12:00 AM 44.6 °F 36.9 °F 42.8 °F 93% 29.56 in 6.2 mi West 18.4 mph - N/A   Mostly Cloudy
12:30 AM 44.6 °F 36.9 °F 42.8 °F 93% 29.56 in 6.2 mi West 18.4 mph - N/A   Mostly Cloudy
1:00 AM 46.4 °F 39.8 °F 42.8 °F 87% 29.59 in 6.2 mi West 16.1 mph - N/A   Mostly Cloudy
1:30 AM 44.6 °F 37.4 °F 42.8 °F 93% 29.59 in 6.2 mi West 16.1 mph - N/A   Mostly Cloudy
2:00 AM 44.6 °F 37.4 °F 42.8 °F 93% 29.62 in 6.2 mi West 16.1 mph - N/A   Mostly Cloudy
2:30 AM 44.6 °F 36.9 °F 41.0 °F 87% 29.62 in 6.2 mi West 18.4 mph - N/A   Mostly Cloudy
3:00 AM 44.6 °F 37.2 °F 41.0 °F 87% 29.65 in 6.2 mi West 17.3 mph - N/A   Scattered Clouds
3:30 AM 42.8 °F 34.3 °F 41.0 °F 93% 29.65 in 6.2 mi West 19.6 mph - N/A   Partly Cloudy
4:00 AM 42.8 °F 34.8 °F 39.2 °F 87% 29.65 in 6.2 mi West 17.3 mph - N/A   Partly Cloudy
4:30 AM 42.8 °F 34.3 °F 39.2 °F 87% 29.68 in 6.2 mi West 19.6 mph - N/A   Partly Cloudy
5:00 AM 41.0 °F 32.8 °F 37.4 °F 87% 29.68 in 6.2 mi West 16.1 mph - N/A   Partly Cloudy
5:30 AM 41.0 °F 32.5 °F 37.4 °F 87% 29.71 in 6.2 mi West 17.3 mph - N/A   Partly Cloudy
6:00 AM 41 °F - 37 °F 82% 29.74 in 19 mi West 17.9 mph - -   Scattered Clouds
6:00 AM 41.0 °F 32.2 °F 37.4 °F 87% 29.71 in 6.2 mi West 18.4 mph - N/A   Partly Cloudy
6:30 AM 41.0 °F 32.2 °F 37.4 °F 87% 29.71 in 6.2 mi West 18.4 mph - N/A   Partly Cloudy
7:00 AM 41.0 °F 31.9 °F 37.4 °F 87% 29.74 in 6.2 mi West 19.6 mph - N/A   Partly Cloudy
7:30 AM 41.0 °F 31.9 °F 37.4 °F 87% 29.74 in 6.2 mi West 19.6 mph - N/A   Partly Cloudy
8:00 AM 41.0 °F 31.6 °F 37.4 °F 87% 29.77 in 6.2 mi West 20.7 mph - N/A   Partly Cloudy
8:30 AM 42.8 °F 34.0 °F 37.4 °F 81% 29.80 in 6.2 mi West 20.7 mph - N/A   Partly Cloudy
9:00 AM 42.8 °F 34.3 °F 39.2 °F 87% 29.80 in 6.2 mi West 19.6 mph - N/A   Partly Cloudy
9:30 AM 44.6 °F 36.9 °F 39.2 °F 81% 29.80 in 6.2 mi West 18.4 mph - N/A   Partly Cloudy
10:00 AM 46.4 °F 39.0 °F 39.2 °F 76% 29.83 in 6.2 mi West 19.6 mph - N/A   Partly Cloudy
10:30 AM 48.2 °F - 41.0 °F 76% 29.83 in 6.2 mi West 21.9 mph - N/A   Partly Cloudy
11:00 AM 48.2 °F - 41.0 °F 76% 29.83 in 6.2 mi West 23.0 mph - N/A   Partly Cloudy
11:30 AM 48.2 °F - 41.0 °F 76% 29.86 in 6.2 mi West 21.9 mph - N/A   Scattered Clouds
12:00 PM 50 °F - 41 °F 62% 29.86 in 25 mi West 20.1 mph - -   Mostly Cloudy
12:00 PM 50.0 °F - 42.8 °F 76% 29.86 in 6.2 mi West 20.7 mph - N/A   Scattered Clouds
12:30 PM 50.0 °F - 41.0 °F 71% 29.86 in 6.2 mi West 21.9 mph - N/A   Scattered Clouds
1:00 PM 50.0 °F - 41.0 °F 71% 29.86 in 6.2 mi West 18.4 mph - N/A   Mostly Cloudy
1:30 PM 50.0 °F - 41.0 °F 71% 29.86 in 6.2 mi West 19.6 mph - N/A   Mostly Cloudy
2:00 PM 48.2 °F - 41.0 °F 76% 29.86 in 6.2 mi WNW 17.3 mph - N/A   Scattered Clouds
2:30 PM 48.2 °F - 41.0 °F 76% 29.89 in 6.2 mi West 17.3 mph - N/A   Scattered Clouds
3:00 PM 46.4 °F 40.1 °F 42.8 °F 87% 29.89 in 6.2 mi West 15.0 mph - N/A   Scattered Clouds
3:30 PM 46.4 °F 40.1 °F 42.8 °F 87% 29.92 in 6.2 mi West 15.0 mph - N/A Rain Light Rain Showers
4:00 PM 46.4 °F 40.1 °F 41.0 °F 81% 29.92 in 6.2 mi West 15.0 mph - N/A   Scattered Clouds
4:30 PM 46.4 °F 40.7 °F 41.0 °F 81% 29.92 in 6.2 mi West 12.7 mph - N/A   Partly Cloudy
5:00 PM 44.6 °F 39.7 °F 41.0 °F 87% 29.92 in 6.2 mi West 9.2 mph - N/A   Scattered Clouds
5:30 PM 44.6 °F 42.2 °F 41.0 °F 87% 29.95 in 6.2 mi West 4.6 mph - N/A   Partly Cloudy
6:00 PM 45 °F - 40 °F 78% 29.96 in 25 mi WSW 8.9 mph - -   Partly Cloudy
6:00 PM 44.6 °F 39.7 °F 41.0 °F 87% 29.95 in 6.2 mi WSW 9.2 mph - N/A   Partly Cloudy
6:30 PM 44.6 °F 37.8 °F 39.2 °F 81% 29.95 in 6.2 mi WSW 15.0 mph - N/A   Scattered Clouds
7:30 PM 44.6 °F 38.8 °F 37.4 °F 76% 29.98 in 6.2 mi WSW 11.5 mph - N/A   Scattered Clouds
8:00 PM 42.8 °F 36.2 °F 37.4 °F 81% 29.98 in 6.2 mi WSW 12.7 mph - N/A   Partly Cloudy
8:30 PM 42.8 °F 36.6 °F 37.4 °F 81% 29.98 in 6.2 mi WSW 11.5 mph - N/A   Partly Cloudy
9:00 PM 42.8 °F 37.0 °F 37.4 °F 81% 29.98 in 6.2 mi WSW 10.4 mph - N/A   Partly Cloudy
9:30 PM 42.8 °F 37.0 °F 37.4 °F 81% 29.98 in 6.2 mi WSW 10.4 mph - N/A   Partly Cloudy
10:00 PM 42.8 °F 37.0 °F 37.4 °F 81% 30.01 in 6.2 mi WSW 10.4 mph - N/A   Partly Cloudy
10:30 PM 42.8 °F 37.0 °F 39.2 °F 87% 30.01 in 6.2 mi WSW 10.4 mph - N/A   Partly Cloudy
11:00 PM 42.8 °F 38.0 °F 39.2 °F 87% 30.01 in 6.2 mi WSW 8.1 mph - N/A   Mostly Cloudy
11:30 PM 42.8 °F 38.0 °F 39.2 °F 87% 30.01 in 6.2 mi WSW 8.1 mph - N/A   Scattered Clouds